TimeMDT,TemperatureF,Dew PointF,Humidity,Sea Level PressureIn,VisibilityMPH,Wind Direction,Wind SpeedMPH,Gust SpeedMPH,PrecipitationIn,Events,Conditions,WindDirDegrees,DateUTC
12:53 AM,55.0,30.9,40,29.71,10.0,West,10.4,-,N/A,,Clear,270,2012-10-13 06:53:00
1:53 AM,48.9,32.0,52,29.74,10.0,WSW,8.1,-,N/A,,Clear,240,2012-10-13 07:53:00
2:53 AM,48.9,32.0,52,29.75,10.0,SSW,8.1,-,N/A,,Clear,210,2012-10-13 08:53:00
3:53 AM,48.9,33.1,54,29.75,10.0,SSW,9.2,-,N/A,,Clear,210,2012-10-13 09:53:00
4:53 AM,45.0,33.1,63,29.78,10.0,SW,10.4,-,N/A,,Clear,230,2012-10-13 10:53:00
5:53 AM,46.9,34.0,61,29.79,10.0,WSW,5.8,-,N/A,,Clear,240,2012-10-13 11:53:00
6:53 AM,44.1,34.0,68,29.81,10.0,SW,6.9,-,N/A,,Clear,220,2012-10-13 12:53:00
7:53 AM,43.0,34.0,71,29.83,10.0,Calm,Calm,-,N/A,,Clear,0,2012-10-13 13:53:00
8:53 AM,44.1,35.1,71,29.83,10.0,WSW,5.8,-,N/A,,Clear,250,2012-10-13 14:53:00
9:53 AM,50.0,37.0,61,29.85,10.0,WSW,9.2,-,N/A,,Clear,240,2012-10-13 15:53:00
10:53 AM,57.0,37.9,49,29.86,10.0,SW,13.8,-,N/A,,Clear,220,2012-10-13 16:53:00
11:53 AM,60.1,37.0,42,29.85,10.0,SW,11.5,-,N/A,,Scattered Clouds,230,2012-10-13 17:53:00
12:53 PM,64.9,37.0,36,29.83,10.0,West,19.6,-,N/A,,Overcast,260,2012-10-13 18:53:00
1:53 PM,66.0,36.0,33,29.83,10.0,West,23.0,28.8,N/A,,Overcast,270,2012-10-13 19:53:00
2:53 PM,66.9,35.1,31,29.83,10.0,West,18.4,28.8,N/A,,Mostly Cloudy,270,2012-10-13 20:53:00
3:53 PM,70.0,34.0,27,29.83,10.0,WNW,16.1,21.9,N/A,,Mostly Cloudy,300,2012-10-13 21:53:00
4:53 PM,68.0,33.1,27,29.85,10.0,WNW,15.0,21.9,N/A,,Overcast,300,2012-10-13 22:53:00
6:53 PM,57.9,35.1,42,29.92,10.0,West,9.2,-,N/A,,Mostly Cloudy,270,2012-10-14 00:53:00
7:53 PM,57.9,35.1,42,29.95,10.0,WSW,12.7,21.9,N/A,,Mostly Cloudy,250,2012-10-14 01:53:00
8:53 PM,54.0,37.9,55,29.99,10.0,SW,11.5,-,N/A,,Scattered Clouds,230,2012-10-14 02:53:00
10:53 PM,53.6,37.4,54,29.98,10.0,WSW,15.0,24.2,N/A,,Clear,250,2012-10-14 04:53:00
11:53 PM,52.0,37.9,59,29.98,10.0,WSW,12.7,-,N/A,,Clear,250,2012-10-14 05:53:00